Probability
4 4 5 6 6 5 4 5 5 4 3 4 4 2 2 2 1 0 0 0 0 0 0 0 0 0 0 0 0 0 0 0 0 0 0 0 0 0
5 5 5 6 7 5 5 6 5 4 2 2 3 3 3 2 1 0 0 0 0 0 0 0 0 0 0 0 0 0 0 0 0 0 0 0 0 0
5 4 5 6 7 6 6 6 6 5 3 2 3 4 5 4 3 2 1 0 0 0 0 0 0 0 0 0 0 0 0 0 0 0 0 0 0 0
4 3 4 6 7 7 7 7 7 7 6 5 6 7 7 6 6 5 3 2 1 0 0 0 0 0 0 0 0 0 0 0 0 0 0 0 0 0
2 2 4 6 8 9 9 9 9 9 9 9 9 10 9 8 8 8 6 5 3 1 0 0 0 0 0 0 0 0 0 0 0 0 0 0 0 0
2 2 3 4 7 8 9 9 10 10 10 10 11 11 11 10 9 9 9 8 6 3 2 2 1 1 1 0 0 0 0 0 0 0 0 0 0 0
2 2 3 3 4 6 7 8 8 9 11 11 11 10 10 10 9 9 9 8 8 7 6 5 5 4 3 2 1 0 0 0 0 0 0 0 0 0
3 3 3 3 4 4 4 4 5 7 9 10 9 9 10 10 10 9 8 8 8 8 8 7 7 7 6 4 2 1 0 0 0 0 0 0 0 0
3 4 4 4 4 5 4 3 3 4 6 7 8 8 9 10 10 10 9 8 7 8 8 7 7 7 7 5 3 1 0 0 0 0 0 0 0 0
4 5 5 4 4 4 4 4 4 4 4 5 6 6 7 8 9 9 8 7 6 6 6 5 6 6 6 5 3 1 0 0 0 0 0 0 0 0
4 4 3 3 2 1 3 4 4 4 5 5 4 4 4 4 5 6 6 6 6 5 4 4 4 4 4 4 3 1 1 0 0 0 0 0 0 0
3 2 1 1 0 0 1 3 3 4 5 6 6 5 4 3 3 4 5 5 5 4 3 3 3 3 3 3 3 3 2 1 1 1 0 0 0 0
2 1 0 0 0 0 1 2 2 3 5 7 7 6 5 3 3 4 4 5 4 4 3 3 3 3 3 3 3 3 3 3 2 2 1 0 0 0
1 0 0 0 0 0 0 1 1 1 2 3 4 5 4 4 3 4 4 5 5 4 3 3 3 3 3 3 3 3 3 3 3 3 2 2 1 1
0 0 0 0 0 0 0 0 0 0 0 0 0 2 4 4 3 3 4 5 5 4 3 3 3 3 3 3 3 3 3 3 3 3 3 3 3 2
0 0 0 0 0 0 0 0 1 1 1 0 1 2 3 3 3 3 3 4 4 3 3 3 3 3 3 3 3 3 3 3 3 3 3 4 3 3
0 0 0 0 0 0 0 0 1 2 1 1 1 2 3 3 3 3 3 3 3 3 3 3 3 3 3 3 3 3 3 3 3 3 3 3 3 3
0 0 0 0 0 0 0 0 1 1 1 0 1 2 2 3 3 3 3 3 3 3 3 3 3 3 3 3 3 3 3 3 3 3 3 3 3 2
0 0 0 0 0 0 0 0 0 0 0 0 0 1 1 1 2 3 3 3 3 3 3 3 3 3 3 3 3 3 3 3 3 3 3 2 1 1
0 0 0 0 0 0 0 0 0 0 0 0 0 0 0 0 1 2 3 3 3 3 3 3 3 3 3 3 3 3 2 2 2 2 2 1 0 0
0 0 0 0 0 0 0 0 0 0 0 0 0 0 0 0 0 1 3 3 2 3 3 3 3 3 3 3 3 2 1 1 1 1 1 0 0 0
0 0 0 0 0 0 0 0 0 0 0 0 0 0 0 0 0 1 2 2 2 2 3 3 3 3 3 3 2 1 0 0 0 0 0 0 0 0
0 0 0 0 0 0 0 0 0 0 0 0 0 0 0 0 0 0 1 1 1 2 3 3 3 3 3 2 1 0 0 0 0 0 0 0 0 0
Wind_Speed
2 2 3 1 2 2 2 3 3 3 2 2 2 1 2 2 2 3 4 5 7 7 6 6 6 7 7 7 7 7 7 8 8 8 9 10 11 11
1 1 2 2 1 2 2 3 3 4 4 2 1 1 1 2 3 3 3 5 7 7 6 6 6 6 7 7 7 7 7 7 8 8 9 9 9 9
2 2 2 2 2 2 2 2 3 3 4 3 2 1 2 3 1 3 3 4 4 8 7 6 6 6 7 7 8 8 8 8 8 8 8 8 9 9
2 2 2 2 2 2 2 2 2 2 4 4 3 2 2 2 2 3 3 3 3 7 8 7 6 6 6 6 6 7 7 8 8 9 8 8 8 8
2 2 2 2 2 2 2 2 2 2 3 3 4 2 3 2 3 3 3 3 4 5 8 9 8 7 7 6 6 6 7 7 8 8 9 8 8 8
2 2 2 2 2 2 3 3 3 3 3 4 3 3 2 2 3 3 3 3 3 3 2 4 6 8 8 7 7 7 7 7 7 7 8 8 8 8
2 2 2 1 2 2 3 2 3 3 3 3 3 3 3 2 3 3 3 3 3 2 3 3 4 5 6 8 8 7 7 7 7 7 7 8 8 9
3 3 3 3 3 4 3 2 3 4 3 3 3 3 3 4 3 4 3 3 3 2 3 3 3 3 3 4 5 8 8 8 8 8 8 8 9 9
3 3 3 1 2 3 4 6 5 4 4 5 4 5 5 4 4 5 4 4 4 4 3 4 3 4 4 2 6 8 8 8 8 8 9 9 9 9
3 4 3 3 2 3 3 3 3 3 3 4 4 5 5 4 4 5 4 5 5 4 4 5 3 4 3 2 6 8 8 8 8 9 9 9 9 9
3 3 4 3 1 3 4 4 3 3 3 4 4 4 3 4 4 5 4 5 5 3 3 5 4 4 4 3 4 9 9 9 9 9 9 9 9 9
3 2 1 2 1 2 4 4 4 4 4 3 4 6 6 6 7 6 6 5 5 4 2 4 4 4 4 3 3 3 6 8 9 9 9 9 9 8
2 2 1 3 1 2 4 4 4 6 5 5 4 4 4 4 5 4 4 5 5 5 3 3 4 4 5 4 4 3 4 4 5 6 9 10 10 9
3 2 1 3 2 3 4 3 5 7 6 5 4 4 4 3 3 3 3 4 5 6 5 5 5 5 5 5 4 4 4 4 4 4 4 6 9 11
2 2 1 3 5 5 6 5 6 5 5 4 4 4 3 3 3 3 4 5 6 6 5 6 6 5 6 6 5 4 4 4 5 5 5 5 5 6
3 3 6 7 7 4 4 6 5 4 5 5 5 4 3 3 4 4 4 4 4 4 4 5 6 6 6 6 5 5 5 5 5 5 5 5 6 6
2 3 4 4 4 4 4 3 3 4 4 4 4 4 4 4 4 4 4 4 4 4 3 3 4 4 5 6 5 5 5 5 5 5 5 6 6 6
4 4 4 3 4 4 4 3 3 3 4 4 4 4 4 4 4 4 4 5 5 4 4 3 3 4 4 4 5 6 5 5 5 5 6 6 6 5
5 4 4 3 3 3 3 3 3 3 3 4 4 5 5 5 5 5 5 5 5 5 4 4 4 5 6 6 4 5 5 5 5 6 6 6 7 5
5 4 4 3 3 3 4 4 4 3 3 4 5 5 5 5 5 5 5 5 5 5 5 4 4 5 6 6 5 4 5 6 6 6 6 6 6 4
4 4 4 4 3 3 4 4 4 4 4 4 4 5 5 6 6 6 5 4 6 6 5 4 3 4 5 5 6 5 3 5 6 6 7 7 6 6
4 3 3 3 4 4 4 4 4 4 4 4 4 5 5 6 6 6 5 4 4 5 5 4 4 4 5 6 7 6 5 4 5 7 8 8 7 7
3 3 3 4 4 4 4 4 5 4 4 4 4 4 5 6 6 5 5 5 5 5 5 5 4 4 5 5 6 6 7 7 6 5 5 6 8 8
Wind_Direction
237 221 256 267 249 260 262 261 265 271 266 199 229 220 227 230 167 224 235 179 199 210 217 219 221 223 226 228 227 226 229 228 224 227 231 230 228 228
258 290 274 278 285 267 257 258 261 271 287 286 248 262 286 269 177 236 240 172 190 192 198 206 215 220 222 223 223 224 226 227 225 225 225 224 228 231
237 225 238 267 272 267 249 248 249 256 268 281 272 256 254 275 248 239 235 233 188 175 186 197 210 219 226 225 223 222 221 224 224 225 223 225 228 229
237 233 240 231 231 261 269 265 261 267 266 280 287 272 241 236 250 250 242 231 236 167 180 195 208 214 220 221 219 219 220 220 222 219 219 222 227 229
248 247 248 246 245 246 262 270 266 256 259 267 270 269 255 242 247 242 243 245 249 181 181 192 203 212 217 219 221 221 221 219 214 212 214 219 226 229
256 250 255 252 252 249 242 246 256 262 254 256 265 262 253 244 251 253 246 227 246 246 208 197 192 200 207 209 214 218 217 216 216 215 215 219 224 227
262 256 248 277 325 292 295 284 262 256 258 260 265 274 273 269 266 268 266 262 246 256 253 233 205 211 201 200 203 206 208 211 215 219 220 220 222 226
266 263 234 210 210 206 237 274 294 276 279 276 271 279 286 285 284 278 280 275 269 254 264 257 249 241 229 221 185 188 203 211 214 218 224 226 225 226
269 270 273 250 237 241 210 211 224 240 261 280 285 291 293 296 294 281 280 289 296 297 274 268 258 256 247 218 172 187 202 213 219 221 221 223 226 227
263 268 273 277 290 295 277 260 251 241 241 252 276 280 292 303 287 277 278 263 258 260 264 269 269 265 263 240 178 190 202 212 219 222 224 224 225 225
255 263 274 272 17 311 277 271 272 261 209 219 253 268 291 287 284 274 266 264 266 258 249 260 267 276 267 254 201 188 197 207 216 221 223 224 228 227
229 227 229 290 15 287 274 276 278 284 284 249 229 231 237 229 225 251 271 273 274 274 269 267 268 271 268 252 243 209 205 204 210 216 219 222 225 235
263 243 146 136 191 265 275 283 292 293 276 266 255 246 237 235 228 231 258 275 283 281 283 271 275 272 276 275 264 258 255 243 222 216 213 215 217 229
280 283 104 140 216 248 259 284 290 282 267 265 264 263 262 261 257 254 250 263 271 277 285 281 278 277 277 276 275 270 265 259 256 254 245 208 213 219
290 31 45 221 236 230 226 240 255 259 268 268 271 272 275 284 280 258 247 247 256 260 261 259 263 268 269 273 277 278 280 276 266 263 257 246 239 227
230 183 202 224 239 252 223 220 238 263 280 278 278 280 278 267 259 263 259 250 252 247 235 241 251 260 263 265 270 270 270 271 269 268 270 265 258 253
260 237 233 228 234 241 248 252 255 250 256 271 278 284 283 277 273 271 270 269 267 268 256 232 235 248 263 273 271 269 272 272 270 273 269 267 257 252
253 243 244 251 259 261 263 261 263 270 273 275 277 280 283 281 278 272 264 265 267 270 271 264 251 248 246 245 249 268 271 273 275 270 267 268 270 265
241 249 251 257 270 276 278 279 281 284 286 283 283 280 279 279 276 272 268 268 271 274 272 267 260 260 269 273 245 229 269 279 279 275 272 276 277 277
243 252 259 264 275 283 289 291 287 282 274 276 278 281 280 280 277 273 270 271 274 273 273 267 260 264 274 284 289 268 237 267 276 280 282 279 281 284
246 253 265 274 280 285 288 286 283 281 280 278 280 282 280 278 278 275 268 255 263 270 273 275 285 267 271 270 269 268 252 228 251 268 277 276 275 267
268 267 273 278 277 280 281 278 276 281 281 274 279 281 282 283 280 278 278 272 268 271 278 278 264 258 262 267 275 280 281 268 232 229 248 266 281 283
276 274 272 271 272 274 280 284 286 288 290 292 291 286 286 285 283 280 278 275 276 277 279 279 276 270 275 276 277 281 283 278 267 246 241 227 229 245